STARLINK-35291 (66083 NORAD) Tracking and Keplerian Element Data

This shows tracking and keplerian element data for the satellite.

Feedback or suggestion? Click here.




ElementValue
Catalog66083
NameSTARLINK-35291
Epoch Orbit1069
Epoch Day354.05154009
Epoch Year2025
RAAN255.5205
Inclination53.1607
Eccentricity0.0001253
Argument of Perigee90.3651
Mean Anonmoly269.7494
Mean Motion15.30206747
Decay Rate0.00022119
L11 66083U 25235AB 25354.05154009 .00022119 00000+0 75655-3 0 9998
L22 66083 53.1607 255.5205 0001253 90.3651 269.7494 15.30206747 10698



Live tracking and technical data element details for STARLINK-35291 (NORAD 66083). STARLINK-35291 can be tracked NOW for your location showing map with azimuth and elevation plus other details from your city location.







IsCatalogInMostPopularTable: catalog: 66083, numindb: 9
Update: records affected: 1



GetName: 66083 STARLINK-35291

Hit Count: updated at: Sat, 11 Apr 2026 21:04:48 GMT